• In Hungary
  • List of Countries
  • For 7 days
  • Water Temperature
  • Satellite Maps
  • Weather Map
  • News
  • Weather Widgets
  • user-avatar
    Login

    Hourly Weather Wetteren

    Today, 12 December, Tuesday

    Time Temperature Precipitation Wind Pressure Humidity
    00:00 +1°C° 0 mm 6 mps 743 mmHg 80%
    01:00 +1°C° 0.1 mm 5 mps 744 mmHg 81%
    02:00 +1°C° 0.1 mm 5 mps 746 mmHg 81%
    03:00 0°C° 0.1 mm 4 mps 747 mmHg 82%
    04:00 0°C° 0.2 mm 4 mps 748 mmHg 84%
    05:00 0°C° 0.2 mm 4 mps 749 mmHg 85%
    06:00 0°C° 0.2 mm 4 mps 750 mmHg 87%
    07:00 0°C° 0.4 mm 4 mps 751 mmHg 87%
    08:00 +1°C° 0.4 mm 4 mps 752 mmHg 87%
    09:00 +1°C° 0.4 mm 4 mps 753 mmHg 87%
    10:00 +1°C° 0.5 mm 4 mps 754 mmHg 84%
    11:00 +2°C° 0.5 mm 5 mps 755 mmHg 80%
    12:00 +3°C° 0.5 mm 5 mps 755 mmHg 77%
    13:00 +2°C° 0.4 mm 5 mps 756 mmHg 79%
    14:00 +3°C° 0.4 mm 4 mps 756 mmHg 80%
    15:00 +3°C° 0.4 mm 4 mps 757 mmHg 82%
    16:00 +1°C° 0 mm 4 mps 757 mmHg 84%
    17:00 0°C° 0 mm 4 mps 758 mmHg 87%
    18:00 0°C° 0 mm 4 mps 758 mmHg 89%
    19:00 0°C° 0 mm 4 mps 758 mmHg 88%
    20:00 0°C° 0 mm 5 mps 759 mmHg 88%
    21:00 0°C° 0 mm 5 mps 759 mmHg 87%
    22:00 -1°C° 0 mm 6 mps 759 mmHg 86%
    23:00 -1°C° 0 mm 6 mps 758 mmHg 85%

    Tomorrow, 13 December, Wednesday

    Time Temperature Precipitation Wind Pressure Humidity
    00:00 -1°C° 0 mm 7 mps 758 mmHg 85%
    01:00 -1°C° 0 mm 7 mps 757 mmHg 86%
    02:00 0°C° 0 mm 8 mps 756 mmHg 86%
    03:00 0°C° 0 mm 8 mps 756 mmHg 87%
    04:00 0°C° 0.7 mm 9 mps 755 mmHg 86%
    05:00 +1°C° 0.7 mm 10 mps 754 mmHg 85%
    06:00 +1°C° 0.7 mm 11 mps 753 mmHg 84%
    07:00 +2°C° 0.3 mm 10 mps 753 mmHg 85%
    08:00 +3°C° 0.3 mm 9 mps 753 mmHg 86%
    09:00 +3°C° 0.3 mm 9 mps 752 mmHg 87%
    10:00 +5°C° 0.2 mm 8 mps 752 mmHg 87%
    11:00 +5°C° 0.2 mm 7 mps 751 mmHg 87%
    12:00 +5°C° 0.2 mm 7 mps 751 mmHg 87%
    13:00 +5°C° 0.8 mm 7 mps 750 mmHg 88%
    14:00 +5°C° 0.8 mm 7 mps 749 mmHg 89%
    15:00 +5°C° 0.8 mm 7 mps 748 mmHg 90%
    16:00 +6°C° 1.4 mm 9 mps 747 mmHg 88%
    17:00 +6°C° 1.4 mm 10 mps 746 mmHg 86%
    18:00 +6°C° 1.4 mm 11 mps 745 mmHg 84%
    19:00 +6°C° 1 mm 10 mps 745 mmHg 80%
    20:00 +5°C° 1 mm 9 mps 746 mmHg 75%
    21:00 +5°C° 1 mm 7 mps 746 mmHg 70%
    22:00 +4°C° 0.2 mm 8 mps 746 mmHg 72%
    23:00 +3°C° 0.2 mm 9 mps 745 mmHg 73%

    Day after tomorrow, 14 December, Thursday

    Time Temperature Precipitation Wind Pressure Humidity
    00:00 +3°C° 0.2 mm 9 mps 745 mmHg 75%
    01:00 +2°C° 0.5 mm 9 mps 745 mmHg 70%
    02:00 +2°C° 0.5 mm 10 mps 746 mmHg 65%
    03:00 +1°C° 0.5 mm 10 mps 746 mmHg 59%
    04:00 +1°C° 0 mm 9 mps 746 mmHg 61%
    05:00 +1°C° 0 mm 8 mps 747 mmHg 63%
    06:00 +1°C° 0 mm 8 mps 748 mmHg 64%
    07:00 +2°C° 0.1 mm 7 mps 747 mmHg 66%
    08:00 +2°C° 0.1 mm 7 mps 747 mmHg 69%
    09:00 +2°C° 0.1 mm 7 mps 747 mmHg 71%
    10:00 +3°C° 0.5 mm 7 mps 746 mmHg 74%
    11:00 +3°C° 0.5 mm 7 mps 745 mmHg 76%
    12:00 +4°C° 0.5 mm 7 mps 744 mmHg 79%
    13:00 +3°C° 0.9 mm 6 mps 744 mmHg 81%
    14:00 +3°C° 0.9 mm 5 mps 743 mmHg 84%
    15:00 +4°C° 0.9 mm 4 mps 742 mmHg 86%
    16:00 +2°C° 0.4 mm 5 mps 742 mmHg 82%
    17:00 +2°C° 0.4 mm 5 mps 742 mmHg 78%
    18:00 +2°C° 0.4 mm 6 mps 743 mmHg 74%
    19:00 +2°C° 0.2 mm 5 mps 743 mmHg 75%
    20:00 +1°C° 0.2 mm 5 mps 743 mmHg 76%
    21:00 +1°C° 0.2 mm 5 mps 743 mmHg 77%
    22:00 +1°C° 0.7 mm 5 mps 743 mmHg 79%
    23:00 +2°C° 0.7 mm 5 mps 743 mmHg 81%

    15 December, Friday

    Time Temperature Precipitation Wind Pressure Humidity
    00:00 +2°C° 0.7 mm 6 mps 742 mmHg 83%
    01:00 +2°C° 0.2 mm 6 mps 742 mmHg 83%
    02:00 +2°C° 0.2 mm 6 mps 742 mmHg 84%
    03:00 +2°C° 0.2 mm 6 mps 742 mmHg 84%
    04:00 +2°C° 0.3 mm 6 mps 742 mmHg 85%
    05:00 +2°C° 0.3 mm 6 mps 742 mmHg 87%
    06:00 +2°C° 0.3 mm 5 mps 742 mmHg 88%
    07:00 +2°C° 0.2 mm 5 mps 743 mmHg 86%
    08:00 +2°C° 0.2 mm 5 mps 743 mmHg 84%
    09:00 +2°C° 0.2 mm 5 mps 744 mmHg 82%
    10:00 +3°C° 0.2 mm 5 mps 744 mmHg 80%
    11:00 +3°C° 0.2 mm 5 mps 745 mmHg 78%
    12:00 +5°C° 0.2 mm 5 mps 746 mmHg 76%
    13:00 +3°C° 0.6 mm 5 mps 746 mmHg 76%
    14:00 +3°C° 0.6 mm 5 mps 747 mmHg 76%
    15:00 +3°C° 0.6 mm 5 mps 748 mmHg 76%
    16:00 +3°C° 0.1 mm 5 mps 749 mmHg 77%
    17:00 +2°C° 0.1 mm 5 mps 749 mmHg 78%
    18:00 +3°C° 0.1 mm 4 mps 750 mmHg 79%
    19:00 +2°C° 0.1 mm 5 mps 751 mmHg 81%
    20:00 +2°C° 0.1 mm 5 mps 752 mmHg 83%
    21:00 +2°C° 0.1 mm 5 mps 753 mmHg 85%
    22:00 +2°C° 0.1 mm 5 mps 753 mmHg 86%
    23:00 +2°C° 0.1 mm 5 mps 754 mmHg 87%

    16 December, Saturday

    Time Temperature Precipitation Wind Pressure Humidity
    00:00 +2°C° 0.1 mm 5 mps 754 mmHg 88%
    01:00 +3°C° 0.2 mm 4 mps 755 mmHg 88%
    02:00 +3°C° 0.2 mm 4 mps 755 mmHg 88%
    03:00 +3°C° 0.2 mm 4 mps 755 mmHg 89%
    04:00 +3°C° 0.4 mm 4 mps 756 mmHg 88%
    05:00 +2°C° 0.4 mm 5 mps 756 mmHg 88%
    06:00 +1°C° 0.4 mm 5 mps 756 mmHg 88%
    07:00 +1°C° 0.1 mm 4 mps 757 mmHg 87%
    08:00 +1°C° 0.1 mm 4 mps 757 mmHg 86%
    09:00 +1°C° 0.1 mm 4 mps 758 mmHg 86%
    10:00 +3°C° 0 mm 4 mps 758 mmHg 80%
    11:00 +2°C° 0 mm 5 mps 758 mmHg 75%
    12:00 +3°C° 0 mm 5 mps 758 mmHg 69%
    13:00 +2°C° 0.1 mm 5 mps 758 mmHg 71%
    14:00 +2°C° 0.1 mm 5 mps 759 mmHg 72%
    15:00 +1°C° 0.1 mm 4 mps 759 mmHg 73%
    16:00 +1°C° 0.1 mm 4 mps 759 mmHg 76%
    17:00 +1°C° 0.1 mm 4 mps 760 mmHg 79%
    18:00 0°C° 0.1 mm 4 mps 761 mmHg 81%
    19:00 0°C° 0.1 mm 4 mps 761 mmHg 82%
    20:00 0°C° 0.1 mm 4 mps 762 mmHg 83%
    21:00 0°C° 0.1 mm 4 mps 762 mmHg 84%
    22:00 0°C° 0.1 mm 4 mps 763 mmHg 84%
    23:00 0°C° 0.1 mm 4 mps 763 mmHg 84%

    17 December, Sunday

    Time Temperature Precipitation Wind Pressure Humidity
    00:00 0°C° 0.1 mm 4 mps 764 mmHg 84%
    01:00 0°C° 0.1 mm 4 mps 764 mmHg 84%
    02:00 0°C° 0.1 mm 4 mps 764 mmHg 84%
    03:00 0°C° 0.1 mm 4 mps 764 mmHg 84%
    04:00 0°C° 0 mm 4 mps 764 mmHg 85%
    05:00 0°C° 0 mm 4 mps 765 mmHg 86%
    06:00 0°C° 0 mm 4 mps 765 mmHg 87%
    07:00 0°C° 0.1 mm 4 mps 765 mmHg 86%
    08:00 0°C° 0.1 mm 4 mps 766 mmHg 86%
    09:00 0°C° 0.1 mm 4 mps 766 mmHg 85%
    10:00 +1°C° 0 mm 4 mps 766 mmHg 82%
    11:00 +3°C° 0 mm 4 mps 766 mmHg 79%
    12:00 +3°C° 0 mm 5 mps 766 mmHg 76%
    13:00 +3°C° 0 mm 5 mps 766 mmHg 78%
    14:00 +3°C° 0 mm 4 mps 766 mmHg 81%
    15:00 +3°C° 0 mm 4 mps 766 mmHg 84%
    16:00 +1°C° 0 mm 4 mps 766 mmHg 85%
    17:00 +1°C° 0 mm 4 mps 766 mmHg 87%
    18:00 +1°C° 0 mm 4 mps 766 mmHg 88%
    19:00 0°C° 0 mm 4 mps 767 mmHg 89%
    20:00 0°C° 0 mm 4 mps 767 mmHg 89%
    21:00 0°C° 0 mm 4 mps 767 mmHg 90%
    22:00 0°C° 0 mm 4 mps 767 mmHg 90%
    23:00 0°C° 0 mm 4 mps 767 mmHg 90%
    Show more